DMSP 5D-2 F13 DEB, 40565

Orbit data source: Space-Track

DMSP 5D-2 F13 DEB, 40565 is space debris in SSO originally from a launch on Fri, 24 Mar 1995 UTC launched from the Air Force Western Test Range (AFWTR). Debris objects in space refer to the collection of defunct objects orbiting the Earth. Examples of debris include non-operational satellites, rocket bodies, and fragments generated from explosions, collisions, or faulty payload assembly.

Loading next visibility...
Identifier
40565, 1995-015DY
Orbit
SSO
Country
Flag of USUS
Related business
Manufacturer
Unknown
Mission
Spacecraft
Bus & Motor
Unknown
Mass
Unknown
Launch date (UTC)
1995-03-24 (31 years ago)
Launch vehicle
Unknown
Launch site
Air Force Western Test Range (AFWTR)
Object type
Payload
Rocket body
Debris
Shape & HBR
Unknown shape, 0.1 m
Radar Cross Section
Small (<0.1 m²)

Expand to show TLE details & history
Last TLE update: 13 hours ago

TLE from 13 hours ago
0 DMSP 5D-2 F13 DEB
1 40565U 95015DY  25297.81184364  .00003725  00000-0  28977-2 0  9992
2 40565  98.7883  58.2355 0171105 179.6017 180.5307 13.86378443531469
Epoch: 2025-10-24T19:29Z
TLE epoch observation values (Epoch: 2025-10-24T19:29:03.290Z)
Latitude
-0.00003°
Longitude
92.52042°
Altitude
1,069.476 km
Speed
7.254 km/s
True Right ascension
03h 52m 56s
True Declination
0° 00' 00"
Sunlit
Object was in full shadow at epoch
Visualization orbit readout
Latitude
Unknown
Longitude
Unknown
Altitude
Unknown
Speed
Unknown
Apparent Right ascension
Unknown
Apparent Declination
Unknown
Sunlit
N/A
Visualization observer readout
Local Sidereal Time
04:03:07
Azimuth
Unknown
Elevation
Unknown
Doppler factor
Unknown
Orbital elements
Apogee altitude
1,063.749 km
Perigee altitude
813.364 km
Semi-major axis
7,316.693 km
Eccentricity
0.01711
Inclination
98.7883°
RAAN
58.2355°
Arg. of periapsis
179.6017°
True anomaly
180.51292°
Mean anomaly
180.5307°
Eccentric anomaly
180.52177°
Mean motion
3.46793 °/min
Orbital period
103.81 mins
BSTAR
0.0028977
Loading maneuver chart data...
Computing Atmospheric mass density...

Documentation

Showing up to 5 results
|